sat.trackr.live / text

‹ back to catalog

STARLINK-37571

NORAD 69043 · 2026-101U

PAYLOAD ACTIVE UNKNOWN

§ Identity

Operator
Country
US
Launch date
2026-05-06
Launch site
AFWTR
Launch vehicle
Mass (kg)
RCS (m²)

Purposes: comms

External: N2YO · Heavens-Above · Gunter

§ Orbital elements

Epoch: 2026-05-24T13:33:09.993600Z

Period
91.43 min
Inclination
97.2850°
Eccentricity
0.0003794
Mean motion
15.74959266 rev/d
Perigee alt
342.2 km
Apogee alt
347.3 km
Semi-major
6,722.9 km
B*
1.8822e-3
RAAN
359.3136°
Arg perigee
166.4402°
Mean anomaly
193.6966°
Rev number
292

§ Raw data

STARLINK-375711 69043U 26101U   26144.56469900  .00287444  00000+0  18822-2 0  99992 69043  97.2850 359.3136 0003794 166.4402 193.6966 15.74959266  2928

JSON: /api/v1/satellites/69043 · /tle

For live sub-satellite position, see the globe view (requires WebGL).

§ Visibility from observer

Set your observer location to see the next 7 days of passes ≥ 10°. The values pass through the URL so the page stays shareable.

No JS? Fill the form by hand. The geolocation button needs JavaScript.